Precipitable_Water
0.26 0.16 0.13 0.12 0.12 0.13 0.15 0.16 0.16 0.20 0.20 0.19 0.18 0.16 0.15 0.14 0.15 0.19 0.20 0.23 0.25 0.19 0.16 0.16 0.16 0.15 0.14 0.15 0.15 0.16 0.17 0.16 0.15 0.15 0.15 0.16 0.16 0.16 0.16 0.17 0.18 0.18 0.17 0.20 0.23 0.25 0.26 0.27 0.30 0.34 0.38 0.40 0.44 0.48 0.51 0.54 0.57 0.60 0.60 0.63 0.64 0.70 0.77 0.77 0.77 0.77 0.76 0.74 0.76 0.80 0.78 0.74 0.78 0.80 0.84 0.84 0.87 0.90 0.93 0.95 0.97 0.98 1.01 1.04 1.06 1.09
0.23 0.15 0.13 0.14 0.15 0.15 0.16 0.19 0.19 0.20 0.20 0.19 0.18 0.17 0.16 0.16 0.14 0.19 0.19 0.23 0.24 0.17 0.15 0.17 0.15 0.14 0.14 0.14 0.14 0.14 0.14 0.12 0.12 0.12 0.13 0.13 0.14 0.15 0.16 0.16 0.16 0.17 0.19 0.20 0.21 0.23 0.24 0.26 0.27 0.32 0.35 0.38 0.38 0.42 0.47 0.49 0.51 0.56 0.62 0.63 0.64 0.70 0.74 0.75 0.75 0.74 0.74 0.74 0.70 0.67 0.67 0.72 0.75 0.78 0.79 0.78 0.84 0.86 0.90 0.93 0.95 0.98 1.00 1.02 1.04 1.07
0.18 0.14 0.15 0.17 0.21 0.21 0.20 0.20 0.21 0.20 0.18 0.19 0.17 0.17 0.16 0.16 0.18 0.21 0.22 0.24 0.24 0.20 0.16 0.17 0.13 0.11 0.12 0.13 0.13 0.12 0.12 0.12 0.13 0.13 0.13 0.13 0.13 0.14 0.14 0.15 0.16 0.17 0.16 0.18 0.19 0.21 0.23 0.24 0.26 0.28 0.32 0.35 0.37 0.38 0.42 0.46 0.51 0.56 0.59 0.62 0.66 0.69 0.70 0.72 0.75 0.76 0.72 0.75 0.77 0.76 0.74 0.75 0.75 0.83 0.85 0.85 0.87 0.90 0.89 0.91 0.93 0.96 0.99 1.00 1.01 1.03
0.14 0.16 0.19 0.22 0.24 0.21 0.20 0.20 0.20 0.20 0.19 0.18 0.17 0.15 0.14 0.19 0.17 0.14 0.21 0.23 0.23 0.20 0.16 0.16 0.12 0.10 0.12 0.12 0.11 0.12 0.12 0.13 0.15 0.15 0.15 0.16 0.15 0.14 0.14 0.14 0.15 0.15 0.16 0.16 0.17 0.19 0.21 0.23 0.25 0.27 0.29 0.32 0.36 0.39 0.42 0.47 0.49 0.53 0.57 0.60 0.64 0.67 0.70 0.72 0.74 0.75 0.77 0.79 0.81 0.83 0.81 0.82 0.80 0.77 0.83 0.86 0.89 0.90 0.90 0.87 0.91 0.94 0.96 0.99 1.00 1.02
0.14 0.19 0.23 0.24 0.24 0.21 0.19 0.20 0.19 0.17 0.15 0.18 0.18 0.17 0.16 0.17 0.19 0.17 0.18 0.21 0.21 0.21 0.20 0.16 0.11 0.09 0.09 0.08 0.09 0.12 0.13 0.13 0.14 0.15 0.16 0.18 0.19 0.19 0.18 0.18 0.17 0.16 0.16 0.17 0.18 0.19 0.20 0.21 0.22 0.24 0.26 0.30 0.33 0.36 0.39 0.43 0.47 0.50 0.52 0.57 0.61 0.64 0.67 0.70 0.74 0.76 0.78 0.79 0.79 0.80 0.81 0.81 0.80 0.80 0.78 0.77 0.77 0.79 0.82 0.85 0.86 0.87 0.94 0.97 0.98 1.02
0.19 0.23 0.25 0.23 0.23 0.22 0.21 0.19 0.19 0.19 0.15 0.16 0.18 0.17 0.17 0.18 0.17 0.18 0.18 0.15 0.13 0.12 0.19 0.14 0.08 0.06 0.09 0.11 0.10 0.11 0.11 0.10 0.12 0.12 0.14 0.15 0.16 0.17 0.16 0.15 0.16 0.18 0.20 0.19 0.19 0.19 0.21 0.22 0.23 0.25 0.26 0.27 0.30 0.33 0.37 0.42 0.47 0.51 0.54 0.58 0.62 0.65 0.67 0.69 0.72 0.75 0.76 0.74 0.71 0.69 0.67 0.64 0.64 0.63 0.65 0.62 0.61 0.67 0.71 0.73 0.82 0.89 0.91 0.93 0.96 0.99
0.21 0.26 0.24 0.22 0.21 0.21 0.21 0.20 0.22 0.21 0.17 0.15 0.16 0.21 0.19 0.18 0.18 0.16 0.15 0.13 0.10 0.08 0.17 0.20 0.09 0.06 0.08 0.08 0.08 0.09 0.09 0.09 0.11 0.11 0.12 0.13 0.13 0.13 0.13 0.14 0.16 0.18 0.20 0.22 0.22 0.22 0.22 0.22 0.23 0.24 0.25 0.26 0.27 0.30 0.38 0.43 0.48 0.52 0.55 0.58 0.60 0.62 0.64 0.68 0.70 0.73 0.72 0.70 0.69 0.67 0.65 0.63 0.61 0.58 0.61 0.67 0.71 0.71 0.74 0.79 0.80 0.84 0.89 0.92 0.93 0.96
0.23 0.24 0.22 0.22 0.21 0.20 0.20 0.18 0.23 0.23 0.19 0.16 0.23 0.24 0.21 0.18 0.16 0.17 0.16 0.15 0.13 0.17 0.18 0.17 0.14 0.08 0.06 0.07 0.11 0.12 0.11 0.10 0.09 0.10 0.10 0.11 0.12 0.13 0.14 0.15 0.17 0.19 0.21 0.21 0.22 0.22 0.23 0.23 0.23 0.22 0.25 0.27 0.28 0.32 0.38 0.42 0.46 0.49 0.52 0.55 0.58 0.61 0.63 0.66 0.68 0.69 0.70 0.67 0.66 0.66 0.65 0.65 0.64 0.62 0.60 0.65 0.69 0.74 0.75 0.75 0.77 0.80 0.83 0.88 0.91 0.92
0.22 0.20 0.20 0.19 0.19 0.18 0.17 0.20 0.24 0.23 0.19 0.20 0.26 0.26 0.21 0.20 0.20 0.20 0.17 0.15 0.16 0.13 0.09 0.12 0.17 0.09 0.08 0.09 0.12 0.12 0.09 0.08 0.09 0.09 0.10 0.12 0.14 0.16 0.17 0.18 0.19 0.20 0.21 0.21 0.21 0.21 0.22 0.23 0.25 0.26 0.27 0.30 0.33 0.35 0.36 0.40 0.44 0.48 0.51 0.54 0.57 0.58 0.60 0.63 0.65 0.66 0.67 0.67 0.66 0.65 0.65 0.63 0.65 0.66 0.66 0.69 0.71 0.71 0.73 0.71 0.74 0.76 0.79 0.83 0.88 0.91
0.26 0.24 0.24 0.23 0.20 0.17 0.22 0.25 0.25 0.22 0.17 0.26 0.28 0.28 0.26 0.24 0.22 0.20 0.16 0.15 0.14 0.12 0.08 0.10 0.14 0.08 0.07 0.08 0.09 0.11 0.09 0.08 0.09 0.11 0.12 0.15 0.18 0.19 0.18 0.19 0.19 0.20 0.22 0.24 0.24 0.24 0.24 0.26 0.28 0.30 0.32 0.33 0.35 0.38 0.40 0.42 0.44 0.47 0.49 0.50 0.51 0.52 0.56 0.59 0.61 0.63 0.64 0.65 0.66 0.64 0.64 0.61 0.61 0.65 0.66 0.68 0.66 0.67 0.69 0.67 0.69 0.72 0.74 0.78 0.81 0.86
0.30 0.33 0.34 0.26 0.21 0.23 0.26 0.27 0.27 0.24 0.24 0.31 0.27 0.22 0.21 0.20 0.20 0.19 0.18 0.16 0.12 0.08 0.08 0.11 0.13 0.11 0.07 0.07 0.08 0.08 0.08 0.09 0.12 0.13 0.14 0.17 0.20 0.21 0.21 0.20 0.21 0.22 0.24 0.24 0.25 0.26 0.26 0.28 0.30 0.32 0.32 0.34 0.37 0.39 0.41 0.42 0.43 0.44 0.45 0.47 0.47 0.49 0.53 0.56 0.57 0.59 0.59 0.62 0.63 0.61 0.61 0.60 0.59 0.61 0.62 0.61 0.62 0.64 0.65 0.64 0.66 0.68 0.70 0.74 0.76 0.80
0.29 0.29 0.27 0.29 0.32 0.30 0.29 0.25 0.30 0.29 0.29 0.25 0.20 0.18 0.17 0.16 0.19 0.17 0.15 0.16 0.09 0.07 0.12 0.14 0.13 0.13 0.07 0.07 0.09 0.12 0.12 0.13 0.13 0.13 0.14 0.15 0.17 0.19 0.21 0.22 0.23 0.23 0.24 0.24 0.24 0.25 0.26 0.27 0.29 0.32 0.32 0.33 0.35 0.36 0.37 0.39 0.42 0.43 0.44 0.44 0.44 0.47 0.50 0.52 0.55 0.56 0.57 0.59 0.60 0.61 0.61 0.60 0.60 0.61 0.60 0.59 0.58 0.60 0.61 0.62 0.63 0.66 0.68 0.69 0.73 0.75
0.23 0.24 0.29 0.30 0.33 0.28 0.23 0.20 0.24 0.27 0.26 0.22 0.19 0.16 0.11 0.09 0.10 0.08 0.12 0.08 0.08 0.07 0.13 0.16 0.16 0.11 0.10 0.09 0.10 0.12 0.13 0.14 0.16 0.16 0.16 0.17 0.20 0.21 0.22 0.22 0.24 0.24 0.24 0.25 0.25 0.25 0.26 0.27 0.28 0.29 0.32 0.33 0.34 0.36 0.37 0.38 0.40 0.42 0.44 0.44 0.43 0.43 0.48 0.51 0.54 0.54 0.55 0.56 0.57 0.58 0.59 0.60 0.61 0.61 0.61 0.60 0.59 0.61 0.60 0.61 0.62 0.63 0.63 0.66 0.66 0.69
0.19 0.27 0.27 0.27 0.29 0.31 0.26 0.16 0.19 0.18 0.22 0.19 0.15 0.13 0.09 0.07 0.07 0.06 0.08 0.10 0.10 0.12 0.15 0.15 0.18 0.10 0.11 0.13 0.15 0.13 0.14 0.16 0.18 0.19 0.19 0.19 0.21 0.22 0.22 0.23 0.23 0.22 0.23 0.25 0.26 0.26 0.27 0.29 0.31 0.33 0.33 0.33 0.34 0.36 0.37 0.38 0.39 0.40 0.41 0.42 0.43 0.44 0.48 0.51 0.52 0.54 0.54 0.55 0.56 0.58 0.59 0.60 0.61 0.60 0.60 0.60 0.59 0.60 0.61 0.62 0.61 0.62 0.62 0.63 0.64 0.66
0.11 0.13 0.19 0.23 0.19 0.29 0.25 0.20 0.19 0.16 0.18 0.17 0.18 0.14 0.10 0.08 0.07 0.05 0.06 0.05 0.06 0.07 0.13 0.19 0.12 0.08 0.09 0.12 0.18 0.19 0.20 0.21 0.22 0.21 0.21 0.21 0.23 0.24 0.25 0.23 0.23 0.22 0.23 0.26 0.26 0.27 0.28 0.30 0.32 0.33 0.34 0.35 0.35 0.36 0.37 0.38 0.38 0.39 0.40 0.41 0.42 0.43 0.47 0.50 0.51 0.53 0.54 0.55 0.57 0.58 0.59 0.60 0.60 0.59 0.59 0.59 0.60 0.60 0.60 0.62 0.62 0.63 0.64 0.64 0.65 0.66
0.13 0.12 0.19 0.25 0.25 0.26 0.20 0.24 0.24 0.20 0.19 0.22 0.21 0.19 0.13 0.10 0.12 0.07 0.09 0.08 0.08 0.09 0.09 0.12 0.10 0.11 0.10 0.17 0.19 0.19 0.20 0.19 0.21 0.20 0.19 0.19 0.21 0.23 0.21 0.20 0.20 0.21 0.23 0.24 0.24 0.25 0.27 0.28 0.31 0.33 0.35 0.36 0.36 0.37 0.38 0.39 0.40 0.40 0.40 0.41 0.42 0.43 0.46 0.49 0.51 0.52 0.54 0.55 0.57 0.58 0.58 0.58 0.59 0.59 0.59 0.59 0.60 0.61 0.62 0.62 0.62 0.62 0.64 0.65 0.66 0.68
0.16 0.13 0.24 0.26 0.28 0.25 0.23 0.25 0.23 0.23 0.11 0.19 0.19 0.13 0.14 0.19 0.14 0.11 0.12 0.14 0.13 0.10 0.07 0.13 0.10 0.12 0.16 0.15 0.16 0.16 0.16 0.16 0.17 0.19 0.17 0.16 0.18 0.20 0.19 0.20 0.20 0.22 0.23 0.23 0.24 0.26 0.27 0.29 0.29 0.30 0.31 0.33 0.34 0.35 0.36 0.37 0.39 0.39 0.40 0.41 0.42 0.43 0.46 0.48 0.51 0.52 0.54 0.55 0.56 0.56 0.57 0.57 0.58 0.58 0.56 0.57 0.58 0.60 0.63 0.64 0.64 0.63 0.64 0.66 0.67 0.68
0.12 0.12 0.23 0.22 0.19 0.27 0.31 0.29 0.27 0.26 0.22 0.20 0.14 0.17 0.24 0.25 0.20 0.12 0.08 0.11 0.10 0.07 0.06 0.11 0.07 0.08 0.08 0.06 0.14 0.15 0.13 0.14 0.16 0.17 0.17 0.18 0.19 0.19 0.20 0.20 0.21 0.23 0.25 0.26 0.27 0.28 0.29 0.29 0.29 0.30 0.31 0.33 0.33 0.33 0.34 0.36 0.39 0.40 0.41 0.42 0.42 0.43 0.44 0.47 0.50 0.51 0.53 0.53 0.54 0.54 0.55 0.57 0.58 0.58 0.58 0.59 0.60 0.62 0.62 0.62 0.63 0.63 0.63 0.64 0.66 0.68
0.18 0.12 0.19 0.25 0.24 0.27 0.31 0.29 0.25 0.29 0.29 0.19 0.17 0.28 0.15 0.14 0.11 0.16 0.11 0.07 0.07 0.07 0.07 0.08 0.09 0.08 0.08 0.07 0.10 0.11 0.11 0.12 0.13 0.15 0.16 0.17 0.20 0.20 0.21 0.22 0.23 0.25 0.27 0.27 0.27 0.28 0.28 0.29 0.30 0.31 0.31 0.33 0.35 0.36 0.36 0.36 0.38 0.40 0.42 0.43 0.44 0.43 0.46 0.48 0.50 0.52 0.53 0.54 0.54 0.55 0.55 0.56 0.58 0.59 0.60 0.61 0.62 0.62 0.60 0.59 0.60 0.60 0.62 0.64 0.66 0.67
0.19 0.12 0.16 0.27 0.25 0.28 0.27 0.25 0.14 0.19 0.28 0.29 0.28 0.22 0.26 0.19 0.15 0.12 0.11 0.12 0.10 0.07 0.07 0.06 0.07 0.05 0.08 0.09 0.11 0.11 0.11 0.11 0.14 0.15 0.17 0.18 0.20 0.21 0.22 0.23 0.25 0.26 0.27 0.28 0.29 0.30 0.31 0.32 0.32 0.32 0.32 0.32 0.34 0.34 0.35 0.36 0.38 0.37 0.40 0.42 0.43 0.46 0.47 0.49 0.49 0.51 0.52 0.54 0.54 0.55 0.56 0.57 0.58 0.60 0.61 0.62 0.61 0.59 0.59 0.60 0.61 0.61 0.62 0.63 0.65 0.66
0.17 0.17 0.11 0.22 0.30 0.27 0.18 0.22 0.16 0.18 0.16 0.19 0.19 0.18 0.20 0.19 0.24 0.20 0.19 0.12 0.09 0.08 0.07 0.06 0.05 0.05 0.09 0.12 0.11 0.12 0.12 0.13 0.13 0.15 0.18 0.20 0.21 0.22 0.23 0.23 0.25 0.27 0.28 0.29 0.31 0.31 0.32 0.33 0.33 0.35 0.35 0.36 0.37 0.38 0.37 0.37 0.37 0.38 0.40 0.40 0.42 0.43 0.45 0.47 0.49 0.51 0.52 0.55 0.55 0.56 0.55 0.56 0.57 0.59 0.61 0.62 0.61 0.59 0.59 0.61 0.62 0.62 0.63 0.65 0.64 0.66
0.17 0.17 0.12 0.20 0.22 0.20 0.18 0.25 0.24 0.22 0.20 0.17 0.16 0.15 0.16 0.16 0.14 0.11 0.11 0.18 0.14 0.10 0.08 0.07 0.06 0.07 0.11 0.13 0.13 0.13 0.14 0.17 0.18 0.20 0.20 0.22 0.23 0.24 0.25 0.26 0.26 0.27 0.29 0.30 0.31 0.32 0.32 0.34 0.35 0.33 0.34 0.36 0.37 0.37 0.37 0.38 0.39 0.39 0.40 0.41 0.43 0.44 0.44 0.47 0.49 0.51 0.53 0.55 0.56 0.56 0.56 0.57 0.59 0.60 0.62 0.61 0.61 0.60 0.59 0.60 0.62 0.64 0.65 0.63 0.65 0.67
0.20 0.20 0.17 0.16 0.17 0.18 0.23 0.29 0.31 0.30 0.29 0.26 0.23 0.18 0.21 0.19 0.18 0.13 0.09 0.12 0.16 0.15 0.14 0.12 0.09 0.07 0.13 0.14 0.15 0.19 0.19 0.21 0.21 0.22 0.22 0.24 0.24 0.26 0.27 0.28 0.29 0.29 0.29 0.30 0.32 0.33 0.33 0.33 0.31 0.32 0.34 0.35 0.37 0.38 0.40 0.40 0.41 0.42 0.43 0.44 0.45 0.44 0.44 0.46 0.49 0.53 0.55 0.55 0.55 0.56 0.57 0.58 0.59 0.60 0.61 0.61 0.61 0.60 0.60 0.62 0.63 0.65 0.64 0.65 0.66 0.69
0.24 0.18 0.16 0.17 0.22 0.26 0.30 0.32 0.34 0.33 0.30 0.26 0.26 0.26 0.24 0.20 0.20 0.17 0.15 0.16 0.14 0.14 0.13 0.12 0.10 0.08 0.14 0.15 0.18 0.20 0.20 0.22 0.24 0.24 0.24 0.24 0.25 0.26 0.27 0.27 0.28 0.29 0.30 0.31 0.31 0.31 0.31 0.32 0.33 0.34 0.35 0.36 0.38 0.40 0.41 0.42 0.43 0.44 0.44 0.45 0.45 0.45 0.46 0.47 0.48 0.51 0.53 0.54 0.54 0.56 0.57 0.58 0.59 0.60 0.59 0.59 0.60 0.60 0.62 0.64 0.65 0.67 0.67 0.67 0.70 0.70
0.20 0.22 0.18 0.16 0.15 0.19 0.21 0.26 0.26 0.32 0.30 0.25 0.23 0.25 0.26 0.26 0.26 0.25 0.23 0.23 0.15 0.15 0.13 0.12 0.09 0.08 0.17 0.18 0.21 0.20 0.21 0.21 0.22 0.24 0.25 0.24 0.26 0.27 0.27 0.27 0.29 0.31 0.32 0.32 0.33 0.34 0.35 0.36 0.37 0.37 0.38 0.40 0.41 0.43 0.43 0.43 0.44 0.44 0.44 0.46 0.46 0.46 0.48 0.49 0.50 0.49 0.49 0.52 0.53 0.54 0.56 0.57 0.58 0.58 0.58 0.58 0.59 0.60 0.62 0.64 0.66 0.67 0.68 0.70 0.71 0.72
0.24 0.23 0.19 0.15 0.12 0.11 0.11 0.12 0.13 0.17 0.21 0.26 0.26 0.25 0.26 0.25 0.25 0.23 0.19 0.20 0.15 0.15 0.16 0.13 0.11 0.11 0.18 0.19 0.20 0.20 0.21 0.21 0.22 0.24 0.25 0.26 0.26 0.27 0.30 0.32 0.34 0.34 0.35 0.36 0.38 0.40 0.40 0.41 0.42 0.42 0.42 0.43 0.44 0.44 0.44 0.45 0.45 0.45 0.46 0.46 0.48 0.47 0.48 0.50 0.51 0.50 0.49 0.49 0.50 0.52 0.54 0.55 0.57 0.56 0.57 0.58 0.59 0.60 0.63 0.65 0.66 0.67 0.70 0.72 0.71 0.73
0.29 0.30 0.24 0.21 0.17 0.15 0.15 0.17 0.22 0.24 0.24 0.21 0.22 0.24 0.25 0.27 0.28 0.26 0.24 0.20 0.16 0.15 0.16 0.16 0.15 0.13 0.14 0.18 0.19 0.22 0.21 0.21 0.23 0.25 0.26 0.27 0.30 0.33 0.34 0.35 0.36 0.37 0.39 0.42 0.44 0.45 0.46 0.45 0.45 0.45 0.45 0.46 0.46 0.47 0.47 0.47 0.47 0.47 0.47 0.47 0.49 0.50 0.50 0.51 0.51 0.51 0.51 0.51 0.51 0.51 0.52 0.54 0.55 0.56 0.57 0.58 0.60 0.62 0.64 0.66 0.68 0.69 0.70 0.72 0.72 0.71
0.34 0.29 0.29 0.27 0.26 0.25 0.26 0.27 0.29 0.29 0.25 0.26 0.25 0.26 0.28 0.28 0.29 0.27 0.24 0.19 0.21 0.20 0.16 0.18 0.19 0.17 0.15 0.17 0.22 0.22 0.23 0.24 0.26 0.28 0.30 0.31 0.33 0.35 0.37 0.39 0.40 0.42 0.45 0.47 0.48 0.48 0.47 0.47 0.48 0.48 0.48 0.48 0.48 0.49 0.49 0.49 0.49 0.49 0.49 0.49 0.51 0.52 0.53 0.54 0.54 0.53 0.53 0.53 0.53 0.53 0.54 0.56 0.58 0.59 0.60 0.62 0.63 0.64 0.66 0.67 0.68 0.69 0.70 0.71 0.70 0.70
0.35 0.29 0.33 0.32 0.30 0.32 0.33 0.33 0.34 0.33 0.32 0.31 0.31 0.31 0.30 0.32 0.31 0.27 0.25 0.25 0.25 0.21 0.16 0.18 0.22 0.20 0.18 0.19 0.24 0.27 0.26 0.25 0.28 0.31 0.34 0.38 0.40 0.42 0.42 0.42 0.42 0.44 0.47 0.49 0.49 0.49 0.49 0.49 0.49 0.50 0.50 0.49 0.49 0.48 0.48 0.50 0.51 0.52 0.52 0.53 0.54 0.54 0.55 0.56 0.55 0.55 0.56 0.56 0.56 0.56 0.58 0.60 0.61 0.63 0.63 0.62 0.63 0.63 0.64 0.66 0.67 0.68 0.70 0.70 0.70 0.71
0.40 0.35 0.37 0.36 0.34 0.35 0.36 0.36 0.37 0.35 0.35 0.35 0.35 0.35 0.35 0.34 0.32 0.31 0.29 0.30 0.30 0.27 0.27 0.26 0.26 0.24 0.24 0.23 0.28 0.32 0.33 0.33 0.34 0.38 0.41 0.42 0.44 0.46 0.45 0.44 0.44 0.46 0.48 0.49 0.49 0.50 0.51 0.52 0.53 0.53 0.52 0.52 0.51 0.51 0.51 0.51 0.51 0.52 0.51 0.52 0.53 0.54 0.56 0.57 0.56 0.56 0.56 0.56 0.57 0.58 0.59 0.60 0.61 0.62 0.62 0.62 0.62 0.62 0.63 0.64 0.66 0.67 0.68 0.69 0.70 0.71
0.41 0.37 0.41 0.40 0.36 0.35 0.37 0.39 0.39 0.38 0.38 0.35 0.37 0.38 0.37 0.36 0.34 0.34 0.33 0.34 0.35 0.33 0.32 0.31 0.29 0.27 0.29 0.34 0.35 0.37 0.42 0.41 0.39 0.40 0.43 0.47 0.48 0.46 0.45 0.47 0.48 0.48 0.49 0.51 0.51 0.52 0.53 0.53 0.54 0.54 0.54 0.54 0.54 0.54 0.54 0.54 0.54 0.54 0.54 0.54 0.54 0.55 0.57 0.57 0.56 0.57 0.57 0.56 0.58 0.59 0.60 0.60 0.60 0.61 0.61 0.62 0.62 0.63 0.63 0.64 0.65 0.66 0.67 0.68 0.69 0.69
0.46 0.41 0.47 0.43 0.36 0.34 0.37 0.38 0.39 0.41 0.41 0.39 0.37 0.37 0.36 0.34 0.31 0.33 0.33 0.35 0.34 0.31 0.32 0.33 0.31 0.28 0.30 0.39 0.39 0.38 0.43 0.42 0.41 0.42 0.45 0.48 0.48 0.48 0.48 0.49 0.50 0.50 0.51 0.51 0.52 0.53 0.53 0.54 0.54 0.54 0.55 0.55 0.56 0.56 0.56 0.56 0.56 0.56 0.55 0.55 0.55 0.56 0.57 0.57 0.56 0.56 0.56 0.57 0.58 0.59 0.60 0.60 0.61 0.60 0.61 0.62 0.62 0.63 0.64 0.64 0.64 0.64 0.66 0.67 0.67 0.68
0.48 0.44 0.41 0.40 0.35 0.33 0.37 0.40 0.40 0.41 0.39 0.35 0.35 0.33 0.34 0.37 0.39 0.38 0.40 0.41 0.39 0.39 0.35 0.32 0.30 0.35 0.38 0.42 0.39 0.37 0.40 0.44 0.45 0.46 0.46 0.49 0.51 0.52 0.51 0.51 0.51 0.51 0.52 0.53 0.53 0.54 0.54 0.54 0.54 0.53 0.54 0.55 0.57 0.57 0.58 0.58 0.57 0.56 0.57 0.56 0.57 0.58 0.57 0.56 0.55 0.55 0.54 0.55 0.55 0.56 0.57 0.58 0.58 0.58 0.58 0.59 0.61 0.63 0.64 0.64 0.64 0.64 0.64 0.65 0.67 0.68
0.50 0.47 0.43 0.45 0.35 0.35 0.38 0.40 0.41 0.35 0.26 0.25 0.31 0.37 0.41 0.37 0.37 0.37 0.37 0.38 0.40 0.43 0.40 0.42 0.41 0.42 0.41 0.40 0.38 0.37 0.38 0.44 0.49 0.52 0.53 0.52 0.52 0.51 0.52 0.52 0.52 0.53 0.54 0.55 0.56 0.55 0.55 0.55 0.55 0.55 0.55 0.55 0.55 0.56 0.57 0.58 0.57 0.56 0.58 0.58 0.58 0.58 0.58 0.57 0.56 0.56 0.55 0.54 0.54 0.55 0.56 0.56 0.56 0.56 0.57 0.58 0.59 0.60 0.61 0.62 0.62 0.64 0.65 0.66 0.66 0.66
0.42 0.42 0.39 0.41 0.35 0.31 0.35 0.36 0.30 0.23 0.23 0.29 0.37 0.38 0.36 0.36 0.37 0.35 0.35 0.37 0.39 0.43 0.44 0.42 0.41 0.39 0.39 0.41 0.41 0.42 0.44 0.47 0.52 0.53 0.54 0.54 0.53 0.51 0.50 0.50 0.50 0.50 0.51 0.51 0.52 0.52 0.53 0.54 0.55 0.56 0.56 0.56 0.56 0.55 0.54 0.52 0.53 0.54 0.55 0.57 0.56 0.57 0.57 0.56 0.56 0.55 0.55 0.55 0.55 0.56 0.56 0.55 0.55 0.55 0.56 0.58 0.58 0.59 0.59 0.59 0.61 0.62 0.63 0.64 0.64 0.64
0.37 0.36 0.36 0.36 0.35 0.35 0.32 0.30 0.21 0.20 0.29 0.33 0.34 0.35 0.39 0.39 0.37 0.37 0.34 0.36 0.38 0.38 0.39 0.37 0.36 0.36 0.36 0.38 0.41 0.43 0.43 0.44 0.47 0.50 0.51 0.52 0.51 0.49 0.46 0.45 0.47 0.48 0.48 0.49 0.50 0.51 0.52 0.52 0.53 0.54 0.55 0.57 0.57 0.56 0.55 0.53 0.52 0.50 0.49 0.53 0.54 0.55 0.55 0.55 0.54 0.53 0.53 0.53 0.53 0.54 0.55 0.55 0.55 0.55 0.56 0.57 0.58 0.58 0.58 0.59 0.60 0.60 0.62 0.62 0.63 0.64
0.41 0.40 0.38 0.32 0.38 0.27 0.29 0.28 0.27 0.33 0.30 0.31 0.29 0.30 0.33 0.30 0.32 0.31 0.26 0.28 0.34 0.38 0.38 0.36 0.36 0.36 0.36 0.38 0.38 0.39 0.40 0.41 0.40 0.42 0.47 0.47 0.46 0.47 0.46 0.45 0.46 0.47 0.49 0.50 0.52 0.52 0.54 0.54 0.54 0.55 0.55 0.55 0.56 0.56 0.54 0.53 0.51 0.49 0.48 0.49 0.50 0.51 0.51 0.51 0.51 0.52 0.52 0.51 0.52 0.53 0.54 0.54 0.53 0.54 0.55 0.56 0.57 0.57 0.58 0.59 0.60 0.61 0.63 0.62 0.62 0.62
0.46 0.40 0.41 0.34 0.33 0.35 0.28 0.27 0.28 0.28 0.23 0.22 0.28 0.36 0.39 0.41 0.43 0.44 0.39 0.33 0.41 0.43 0.44 0.42 0.39 0.40 0.40 0.40 0.40 0.40 0.40 0.35 0.32 0.37 0.43 0.44 0.46 0.45 0.46 0.46 0.47 0.48 0.49 0.50 0.51 0.52 0.53 0.54 0.55 0.55 0.54 0.53 0.53 0.54 0.53 0.51 0.49 0.47 0.46 0.46 0.48 0.48 0.48 0.48 0.48 0.50 0.50 0.50 0.51 0.53 0.54 0.55 0.55 0.53 0.53 0.54 0.54 0.55 0.57 0.59 0.61 0.61 0.63 0.62 0.61 0.62
0.49 0.48 0.44 0.38 0.35 0.36 0.33 0.28 0.26 0.24 0.25 0.29 0.33 0.38 0.40 0.44 0.45 0.46 0.37 0.29 0.37 0.40 0.41 0.39 0.38 0.38 0.38 0.38 0.38 0.38 0.33 0.28 0.27 0.34 0.40 0.41 0.43 0.45 0.44 0.45 0.47 0.47 0.48 0.49 0.49 0.48 0.50 0.51 0.51 0.51 0.51 0.50 0.48 0.50 0.51 0.50 0.48 0.47 0.46 0.46 0.46 0.46 0.46 0.47 0.49 0.50 0.51 0.51 0.52 0.53 0.54 0.56 0.56 0.56 0.55 0.55 0.55 0.56 0.56 0.57 0.59 0.60 0.62 0.62 0.62 0.63
0.39 0.40 0.40 0.35 0.33 0.34 0.32 0.29 0.26 0.31 0.28 0.32 0.37 0.39 0.42 0.46 0.46 0.40 0.25 0.24 0.33 0.37 0.39 0.39 0.37 0.37 0.38 0.39 0.38 0.35 0.31 0.27 0.28 0.33 0.39 0.41 0.43 0.44 0.44 0.43 0.44 0.44 0.45 0.47 0.48 0.49 0.49 0.49 0.48 0.47 0.47 0.47 0.48 0.50 0.50 0.49 0.48 0.47 0.47 0.46 0.46 0.46 0.46 0.46 0.47 0.49 0.51 0.52 0.53 0.53 0.54 0.55 0.56 0.57 0.57 0.56 0.57 0.58 0.58 0.59 0.60 0.60 0.61 0.61 0.62 0.63
0.28 0.31 0.33 0.26 0.27 0.28 0.29 0.28 0.31 0.30 0.35 0.36 0.37 0.40 0.41 0.45 0.41 0.26 0.18 0.24 0.33 0.36 0.37 0.39 0.39 0.40 0.40 0.40 0.40 0.34 0.36 0.36 0.36 0.39 0.41 0.41 0.40 0.41 0.43 0.43 0.43 0.43 0.42 0.43 0.44 0.46 0.45 0.45 0.45 0.44 0.44 0.46 0.47 0.48 0.48 0.47 0.45 0.43 0.44 0.45 0.45 0.44 0.44 0.46 0.48 0.49 0.50 0.50 0.51 0.52 0.53 0.55 0.55 0.56 0.58 0.59 0.59 0.60 0.60 0.60 0.60 0.60 0.61 0.61 0.62 0.62
0.23 0.25 0.27 0.27 0.24 0.22 0.23 0.22 0.23 0.27 0.30 0.32 0.36 0.37 0.41 0.35 0.25 0.21 0.27 0.36 0.37 0.35 0.37 0.39 0.38 0.38 0.39 0.36 0.36 0.35 0.36 0.38 0.40 0.40 0.39 0.38 0.37 0.37 0.38 0.39 0.39 0.40 0.42 0.42 0.42 0.42 0.40 0.39 0.39 0.40 0.40 0.42 0.44 0.45 0.46 0.45 0.43 0.41 0.41 0.41 0.43 0.45 0.46 0.46 0.47 0.48 0.49 0.50 0.51 0.52 0.53 0.54 0.56 0.57 0.58 0.58 0.59 0.60 0.60 0.62 0.63 0.62 0.62 0.62 0.62 0.61
0.17 0.17 0.18 0.18 0.21 0.24 0.23 0.20 0.20 0.15 0.20 0.28 0.31 0.30 0.35 0.25 0.26 0.32 0.35 0.37 0.38 0.35 0.34 0.33 0.33 0.34 0.35 0.31 0.33 0.34 0.35 0.36 0.37 0.36 0.37 0.38 0.37 0.36 0.37 0.37 0.37 0.37 0.37 0.37 0.36 0.37 0.37 0.35 0.35 0.36 0.37 0.39 0.41 0.43 0.43 0.43 0.42 0.42 0.42 0.41 0.43 0.44 0.46 0.47 0.47 0.46 0.46 0.47 0.49 0.51 0.52 0.53 0.54 0.55 0.56 0.57 0.57 0.58 0.58 0.60 0.61 0.61 0.62 0.61 0.61 0.61
0.23 0.16 0.17 0.19 0.20 0.14 0.15 0.15 0.15 0.16 0.20 0.29 0.25 0.19 0.29 0.30 0.35 0.35 0.34 0.31 0.34 0.34 0.32 0.31 0.33 0.33 0.35 0.34 0.34 0.35 0.36 0.37 0.37 0.38 0.37 0.37 0.37 0.37 0.36 0.36 0.37 0.37 0.37 0.38 0.38 0.37 0.36 0.35 0.34 0.35 0.36 0.39 0.40 0.41 0.42 0.41 0.39 0.39 0.40 0.41 0.44 0.44 0.44 0.44 0.44 0.45 0.45 0.45 0.45 0.47 0.49 0.50 0.52 0.53 0.54 0.54 0.55 0.55 0.56 0.57 0.58 0.59 0.59 0.60 0.59 0.59
0.25 0.16 0.16 0.12 0.20 0.17 0.13 0.15 0.21 0.25 0.25 0.27 0.28 0.29 0.32 0.36 0.37 0.36 0.35 0.34 0.33 0.34 0.37 0.35 0.35 0.37 0.38 0.38 0.37 0.36 0.35 0.36 0.36 0.37 0.36 0.35 0.36 0.36 0.35 0.35 0.35 0.35 0.35 0.36 0.36 0.37 0.36 0.35 0.33 0.33 0.33 0.35 0.38 0.41 0.42 0.42 0.40 0.38 0.38 0.41 0.43 0.42 0.42 0.42 0.42 0.42 0.42 0.42 0.43 0.44 0.45 0.47 0.48 0.50 0.51 0.52 0.52 0.52 0.52 0.53 0.55 0.55 0.57 0.58 0.58 0.58
0.26 0.26 0.27 0.21 0.22 0.27 0.29 0.28 0.30 0.28 0.27 0.27 0.31 0.33 0.34 0.37 0.41 0.40 0.37 0.35 0.34 0.36 0.39 0.37 0.39 0.40 0.40 0.40 0.37 0.35 0.35 0.35 0.34 0.34 0.34 0.34 0.33 0.33 0.34 0.34 0.34 0.35 0.35 0.35 0.35 0.36 0.35 0.35 0.34 0.33 0.32 0.33 0.35 0.38 0.39 0.39 0.39 0.37 0.38 0.41 0.42 0.42 0.42 0.42 0.41 0.40 0.41 0.41 0.41 0.41 0.42 0.42 0.44 0.46 0.47 0.49 0.50 0.51 0.51 0.51 0.52 0.52 0.53 0.53 0.53 0.53
0.23 0.27 0.26 0.21 0.24 0.22 0.19 0.28 0.27 0.27 0.29 0.28 0.29 0.31 0.34 0.39 0.42 0.43 0.40 0.37 0.38 0.42 0.42 0.44 0.42 0.41 0.40 0.39 0.37 0.34 0.34 0.36 0.34 0.33 0.33 0.32 0.31 0.32 0.32 0.31 0.31 0.32 0.32 0.31 0.32 0.33 0.32 0.32 0.31 0.31 0.31 0.30 0.33 0.35 0.37 0.36 0.37 0.37 0.38 0.38 0.40 0.41 0.41 0.41 0.40 0.40 0.40 0.40 0.40 0.41 0.41 0.40 0.41 0.42 0.44 0.45 0.47 0.48 0.50 0.51 0.51 0.51 0.51 0.51 0.51 0.52
0.17 0.26 0.22 0.24 0.24 0.21 0.19 0.25 0.30 0.33 0.34 0.34 0.33 0.31 0.33 0.35 0.37 0.39 0.39 0.39 0.39 0.40 0.39 0.39 0.39 0.37 0.37 0.35 0.34 0.32 0.31 0.32 0.31 0.29 0.28 0.28 0.29 0.29 0.29 0.29 0.28 0.28 0.28 0.30 0.30 0.30 0.29 0.29 0.28 0.28 0.29 0.29 0.31 0.33 0.34 0.34 0.35 0.36 0.36 0.35 0.37 0.39 0.40 0.39 0.39 0.38 0.38 0.39 0.40 0.40 0.41 0.40 0.40 0.40 0.41 0.42 0.44 0.45 0.47 0.49 0.50 0.50 0.50 0.50 0.51 0.51
0.20 0.22 0.16 0.19 0.18 0.22 0.26 0.27 0.28 0.27 0.28 0.29 0.31 0.32 0.31 0.31 0.32 0.33 0.34 0.33 0.33 0.31 0.31 0.31 0.31 0.30 0.30 0.28 0.28 0.27 0.25 0.24 0.25 0.24 0.22 0.22 0.22 0.22 0.22 0.23 0.23 0.23 0.23 0.23 0.25 0.26 0.25 0.26 0.26 0.26 0.26 0.27 0.29 0.31 0.30 0.31 0.32 0.33 0.33 0.34 0.35 0.36 0.37 0.37 0.38 0.37 0.37 0.38 0.38 0.38 0.40 0.40 0.40 0.40 0.40 0.41 0.43 0.45 0.47 0.47 0.48 0.49 0.49 0.51 0.52 0.52
0.21 0.16 0.18 0.16 0.12 0.13 0.13 0.18 0.22 0.17 0.17 0.22 0.24 0.26 0.27 0.29 0.29 0.29 0.30 0.29 0.29 0.28 0.28 0.28 0.28 0.30 0.29 0.28 0.27 0.26 0.23 0.22 0.22 0.22 0.20 0.20 0.20 0.20 0.20 0.20 0.20 0.20 0.20 0.21 0.23 0.23 0.23 0.24 0.24 0.24 0.24 0.25 0.27 0.28 0.29 0.30 0.31 0.33 0.34 0.35 0.36 0.36 0.35 0.37 0.37 0.37 0.37 0.38 0.38 0.38 0.39 0.39 0.40 0.40 0.40 0.40 0.41 0.43 0.45 0.47 0.48 0.48 0.49 0.50 0.52 0.53
0.17 0.17 0.16 0.12 0.11 0.10 0.14 0.18 0.22 0.23 0.22 0.24 0.27 0.29 0.29 0.30 0.30 0.29 0.28 0.29 0.29 0.29 0.28 0.27 0.25 0.25 0.25 0.26 0.27 0.25 0.23 0.21 0.21 0.21 0.20 0.19 0.19 0.19 0.20 0.19 0.18 0.18 0.18 0.19 0.19 0.19 0.20 0.21 0.22 0.23 0.23 0.24 0.26 0.26 0.27 0.29 0.31 0.32 0.34 0.35 0.37 0.37 0.36 0.37 0.37 0.37 0.38 0.38 0.39 0.39 0.40 0.40 0.41 0.42 0.41 0.41 0.41 0.42 0.43 0.44 0.47 0.50 0.51 0.52 0.54 0.55
Wind_Speed
17 17 18 18 18 18 18 17 16 16 14 14 14 13 14 14 14 15 15 15 13 13 15 16 16 16 16 17 17 18 16 15 16 16 17 17 16 16 16 16 16 16 16 15 15 16 16 16 17 17 17 16 16 16 16 16 16 16 16 16 16 16 16 16 16 16 16 16 16 16 17 17 17 17 18 18 19 19 20 20 21 21 22 22 23 23
16 17 19 19 19 18 18 17 15 14 13 13 13 13 13 14 15 15 15 15 13 14 15 14 15 17 17 17 18 18 16 16 17 17 17 18 18 17 17 17 17 16 16 15 15 16 16 17 17 17 17 17 17 17 17 17 17 17 16 17 17 16 16 16 16 16 17 17 17 17 17 17 18 18 18 18 19 19 20 20 21 21 22 22 23 23
16 18 19 19 18 16 15 16 15 14 14 13 13 13 13 14 14 14 14 14 13 14 16 15 15 17 17 17 18 18 17 17 18 17 18 18 18 18 17 17 17 17 17 16 16 17 17 17 17 17 18 18 19 18 18 17 17 17 17 17 17 17 16 16 17 17 17 17 17 17 17 17 18 18 18 19 19 19 20 21 21 22 22 23 23 24
17 18 19 19 18 16 14 16 15 15 14 14 14 14 15 15 14 14 15 15 14 14 15 15 16 17 16 16 18 18 18 17 17 17 17 17 17 18 18 17 17 18 18 17 17 17 17 18 17 17 18 18 19 18 18 18 17 17 17 17 17 17 17 17 17 17 17 17 17 17 17 17 17 18 18 19 19 20 20 21 22 22 23 23 24 24
18 18 18 17 17 16 15 15 16 16 16 15 15 15 16 16 15 15 15 15 14 15 15 15 16 17 15 14 16 15 15 16 15 15 16 17 17 17 17 17 17 17 17 17 17 17 16 17 17 18 18 18 18 18 18 18 18 18 18 18 18 18 17 17 17 17 17 17 17 17 17 17 17 18 18 18 19 20 20 21 22 23 23 24 24 25
19 18 17 16 16 16 16 16 17 17 16 16 17 17 17 17 16 16 15 13 14 15 15 13 13 15 15 14 15 15 13 14 14 13 15 15 15 16 17 17 17 17 17 17 17 16 16 17 17 17 17 17 18 19 19 19 18 18 18 18 18 18 18 18 17 17 17 17 18 18 18 18 18 18 19 19 20 20 21 22 22 23 24 24 25 26
19 17 16 16 16 15 16 17 17 16 15 16 17 17 16 15 15 15 14 14 14 16 15 12 12 15 16 15 16 15 14 15 14 14 15 16 16 17 17 17 17 17 17 17 17 17 16 16 16 17 17 18 18 19 18 18 18 18 18 18 18 19 19 18 18 18 18 18 19 19 19 19 19 20 20 21 21 21 22 22 23 24 24 25 26 26
19 17 15 15 15 15 16 17 18 16 15 17 17 16 15 14 15 15 14 14 16 16 16 14 14 15 16 16 16 15 14 15 15 15 16 17 17 17 17 17 17 17 16 16 16 16 16 17 17 17 17 18 18 18 18 18 19 19 19 19 19 19 19 19 19 19 20 20 20 20 20 20 21 21 22 22 22 22 23 23 24 24 25 26 27 27
18 18 18 17 15 16 18 18 18 16 15 18 17 15 15 15 15 14 13 14 15 15 17 16 14 15 17 17 15 15 15 15 15 16 17 17 16 15 15 15 16 15 15 15 15 15 16 16 17 17 17 18 18 18 18 18 19 19 19 19 19 20 20 20 20 20 21 21 21 21 21 22 22 22 22 22 23 23 23 24 24 25 25 26 27 28
18 19 20 18 17 18 18 17 18 16 15 17 16 14 14 13 13 14 14 15 15 16 18 18 16 16 18 18 16 15 15 15 16 16 16 15 13 12 12 12 13 13 13 14 14 15 15 16 16 17 17 17 18 18 18 19 19 19 19 20 20 21 21 21 21 21 21 22 22 22 22 23 23 23 23 23 23 23 24 24 25 25 26 27 28 29
19 19 19 18 18 19 18 16 17 16 16 15 14 13 13 13 14 14 15 14 15 17 18 18 17 16 17 17 15 15 14 14 14 14 14 13 12 11 11 11 13 14 14 14 15 15 15 16 16 16 17 17 17 17 18 18 19 19 20 20 21 21 21 21 22 22 22 22 22 23 23 24 24 24 24 24 24 24 24 25 25 26 27 27 28 29
19 19 19 19 19 18 17 16 16 16 15 15 14 13 13 14 14 14 15 15 16 18 17 17 16 17 18 17 14 15 15 14 13 14 14 14 13 12 12 13 15 16 16 16 17 16 16 16 16 16 16 17 17 17 18 18 19 19 20 21 21 22 22 22 22 22 23 23 23 23 24 24 24 24 24 25 25 25 25 26 26 26 27 28 29 30
21 21 21 20 20 20 18 17 17 17 16 15 15 14 14 14 14 15 16 15 17 19 17 16 15 18 21 20 18 19 18 15 15 16 16 15 14 14 14 15 16 17 17 18 18 17 17 17 18 17 17 17 18 18 18 19 19 20 20 21 22 23 23 23 23 23 24 24 24 24 24 24 25 25 25 26 26 26 26 26 26 27 27 28 29 30
22 22 22 21 21 22 20 19 19 19 18 18 18 17 16 14 14 16 17 16 18 18 18 18 17 19 20 19 19 20 18 16 17 17 17 16 16 16 16 17 17 17 17 17 17 17 18 18 19 18 18 18 19 19 20 20 21 21 21 22 23 24 24 24 24 25 25 25 25 25 25 25 25 26 26 26 26 26 27 27 27 28 29 29 30 31
24 23 24 24 23 23 22 22 21 19 19 20 19 18 19 18 16 17 17 16 17 17 17 18 17 18 17 15 15 16 16 15 15 16 16 16 16 16 16 16 16 17 17 17 17 18 18 19 19 19 20 20 21 21 22 22 22 23 23 24 25 25 25 25 26 26 26 26 26 26 26 26 26 26 27 27 27 27 28 28 29 29 30 31 31 32
25 25 25 24 23 24 23 23 21 19 20 21 20 19 20 21 18 17 17 18 17 16 18 19 19 20 18 19 20 18 17 16 15 15 15 16 16 16 16 17 17 18 18 17 17 17 18 19 19 20 21 22 23 23 24 24 24 25 25 26 26 26 26 26 27 27 27 27 27 27 27 27 27 27 28 28 28 28 29 29 30 31 31 32 32 33
25 26 25 22 22 24 23 23 22 22 22 21 21 23 23 21 18 18 19 18 17 19 20 20 21 22 20 22 23 20 20 20 17 16 16 18 19 18 18 19 18 18 18 18 17 17 18 18 19 20 21 23 24 24 25 25 25 26 26 26 27 28 28 28 28 28 29 29 29 29 29 28 28 29 29 29 29 30 30 31 31 32 32 33 33 33
25 25 25 24 24 24 23 22 22 23 23 22 23 25 23 21 19 19 19 18 17 20 21 21 23 23 21 21 20 17 17 19 18 17 17 17 18 18 18 18 18 18 17 18 18 18 19 19 20 21 22 23 24 25 26 26 26 27 27 28 28 29 29 29 29 29 30 30 30 30 30 30 30 30 31 31 31 31 32 32 33 33 33 34 34 35
26 25 26 25 26 25 24 24 24 24 24 24 25 24 21 21 22 21 20 20 19 20 22 22 23 24 23 23 22 20 20 20 18 16 17 17 17 17 18 18 18 18 18 19 19 20 20 21 22 23 24 25 25 26 26 27 27 28 29 29 30 31 31 31 30 31 31 32 32 32 32 32 32 32 33 33 33 33 34 34 34 34 35 35 35 36
27 27 27 26 26 26 25 26 28 27 25 25 24 23 23 23 22 22 22 21 21 21 22 22 22 23 24 23 23 23 24 22 18 18 19 19 19 18 18 18 19 19 20 21 21 22 22 23 24 24 25 26 26 27 27 27 28 28 29 30 31 32 33 33 32 32 32 33 33 34 34 34 34 34 34 35 35 36 36 36 36 36 36 36 37 37
28 28 28 27 27 27 28 29 30 28 27 26 27 26 26 24 23 23 24 23 22 21 22 22 23 25 24 21 21 22 22 21 19 20 22 22 21 20 20 19 20 20 21 22 22 23 23 24 25 25 26 27 28 28 28 28 29 29 30 30 31 32 34 34 34 34 34 34 35 35 35 35 35 35 36 36 37 37 38 38 37 38 38 38 39 39
30 29 29 28 28 30 30 30 29 29 28 27 28 29 28 27 25 24 25 26 25 24 23 23 26 29 26 23 23 22 22 21 20 20 22 22 21 21 21 20 21 21 21 22 24 25 25 26 27 28 29 29 29 29 29 30 30 30 31 31 32 33 34 35 35 35 35 35 36 37 37 37 37 37 37 38 38 39 39 39 40 40 40 41 41 41
29 28 28 29 30 31 31 30 29 29 28 28 29 30 29 28 28 26 26 26 25 26 26 24 26 30 27 24 23 21 20 21 21 21 21 21 21 22 21 21 21 22 23 24 25 26 27 29 31 32 32 32 31 32 31 31 32 32 33 33 33 34 35 35 36 36 37 37 38 38 39 39 39 39 39 40 40 40 41 41 41 41 41 42 42 43
30 29 29 30 29 29 29 29 29 29 29 30 31 30 30 30 29 28 28 27 26 28 27 24 27 30 27 24 22 21 21 21 21 21 20 21 22 22 22 22 23 24 26 26 28 29 31 33 34 34 34 34 33 33 33 33 34 35 35 35 35 36 36 36 37 37 38 39 40 40 40 41 41 41 41 41 42 42 42 42 42 42 42 43 43 44
31 31 30 28 27 28 28 29 30 31 31 32 32 32 31 30 28 28 29 28 28 30 29 27 30 32 28 24 22 22 23 23 22 22 22 22 23 23 25 27 28 29 31 32 33 34 35 36 35 35 35 35 34 34 34 35 36 36 37 37 37 38 38 38 38 39 39 40 41 42 42 42 42 42 43 43 43 44 44 44 44 44 44 44 44 44
31 31 31 30 29 30 31 31 33 32 31 32 32 32 32 31 30 30 30 29 31 33 32 32 34 35 30 27 25 25 25 26 26 26 27 27 27 29 30 32 33 34 34 35 36 37 37 36 36 36 36 36 36 36 36 37 37 38 38 39 39 39 40 40 40 40 41 41 42 43 43 44 44 45 45 46 46 46 46 46 45 45 45 45 44 44
29 31 33 33 34 34 33 33 33 31 30 33 34 33 33 33 33 32 31 33 35 34 34 36 38 39 37 33 30 30 30 31 31 31 32 32 32 32 34 35 35 35 36 36 37 37 36 36 36 37 37 37 37 37 37 38 38 38 39 39 39 39 40 41 41 42 42 42 43 43 44 45 46 46 47 47 48 47 47 47 46 46 45 45 44 43
29 31 32 33 34 34 33 32 31 30 32 34 34 33 33 33 34 34 35 37 36 33 37 39 37 39 42 38 33 34 34 34 34 33 34 34 34 35 36 36 36 36 37 37 36 36 36 36 36 36 37 37 37 37 38 38 38 38 38 38 38 39 40 40 41 42 43 44 44 45 45 45 46 46 47 47 48 48 48 47 46 46 45 44 44 43
29 31 32 31 32 33 32 31 31 30 31 32 32 33 34 34 35 37 39 39 36 36 40 39 35 39 43 39 34 34 35 35 35 35 35 36 36 36 36 36 37 37 37 36 36 36 36 35 35 36 36 37 37 37 37 37 38 38 38 38 38 39 39 39 40 41 42 43 44 44 45 45 45 46 46 46 47 47 47 47 46 45 44 44 44 43
30 31 31 30 31 32 33 32 31 30 30 31 32 33 33 35 37 38 39 38 37 38 40 38 36 40 41 38 34 34 35 37 37 36 36 35 36 36 37 37 38 37 36 35 35 35 35 34 35 35 36 36 36 37 37 38 38 38 38 39 39 39 39 38 38 39 39 41 42 43 43 44 45 45 46 46 46 46 46 46 46 45 45 44 44 43
31 31 31 30 31 32 33 32 31 30 31 31 32 33 34 36 37 37 37 35 35 38 39 37 39 42 39 35 36 35 34 36 37 37 35 34 34 36 38 38 38 36 35 34 34 34 34 34 35 36 36 37 37 38 38 38 39 39 40 40 40 40 39 38 38 38 38 39 40 41 41 42 43 44 44 44 45 45 45 46 46 46 45 44 43 43
31 32 31 30 31 33 33 32 32 31 31 33 35 36 36 36 36 35 35 34 34 36 37 36 38 40 36 32 34 34 33 34 36 36 34 33 34 35 36 36 36 35 34 35 35 35 35 35 35 36 37 38 38 38 39 39 40 40 41 41 41 40 40 40 39 39 39 40 40 40 41 41 42 42 43 43 44 44 45 45 45 45 45 44 43 43
31 31 31 31 32 34 34 32 32 31 31 35 39 39 38 37 37 36 35 35 35 35 35 36 37 37 35 33 34 36 34 34 34 34 34 34 34 33 33 34 35 35 35 35 35 35 35 36 36 37 38 38 39 39 40 40 41 41 42 42 42 41 41 41 41 41 41 41 41 42 42 42 42 43 43 43 43 43 43 44 44 44 44 44 43 43
31 32 32 32 32 34 33 31 30 31 33 37 38 37 38 39 40 39 39 40 38 36 36 37 37 37 37 36 37 37 36 34 33 34 34 33 32 32 33 33 35 36 36 36 36 36 36 37 37 37 38 39 40 40 41 41 42 42 43 43 43 42 42 43 43 43 43 43 43 43 43 43 43 44 44 44 43 43 43 43 43 43 43 43 43 43
32 32 32 32 32 32 31 29 29 32 36 37 34 33 35 38 39 40 41 41 39 37 38 39 39 40 40 39 37 36 35 34 33 33 32 31 31 32 33 34 35 35 36 36 36 36 37 37 38 39 40 40 41 42 42 42 42 43 43 43 44 44 44 45 45 45 45 45 45 45 45 45 45 45 45 44 44 44 44 43 43 42 42 43 43 43
34 33 32 32 32 31 29 31 32 34 34 35 34 33 33 33 34 36 38 39 38 37 37 38 40 40 39 38 36 35 35 33 33 33 32 31 32 32 33 35 35 35 36 37 37 38 38 39 39 40 41 41 42 42 42 43 43 44 45 45 46 46 46 46 47 47 47 47 47 47 47 46 46 46 46 45 45 45 45 45 44 44 43 44 44 44
34 34 33 34 34 33 32 34 35 34 35 37 36 35 33 33 33 33 35 36 35 35 35 36 37 37 35 34 34 34 34 32 32 33 33 32 32 33 34 35 36 37 37 38 39 39 40 41 41 41 42 42 43 43 44 44 45 45 46 46 47 47 48 48 48 49 48 48 48 48 48 47 47 47 47 46 47 47 47 46 46 46 46 46 46 46
33 34 34 34 34 33 33 34 33 33 36 38 37 34 34 34 32 31 33 34 33 32 33 33 33 33 32 32 32 33 32 32 32 33 34 34 33 34 35 36 37 38 38 39 40 41 41 42 42 42 43 44 44 45 45 45 46 46 46 47 47 48 48 49 50 50 50 50 49 49 49 49 49 48 48 48 48 48 48 48 48 48 48 48 48 48
34 33 32 32 32 32 32 32 31 32 34 35 34 33 33 33 31 29 32 35 34 33 33 32 32 33 32 32 32 31 31 33 34 34 35 35 35 35 36 37 37 38 39 40 41 41 42 43 43 43 44 45 45 45 45 46 46 46 47 47 47 48 48 49 50 51 51 51 51 51 50 51 51 50 50 50 49 49 49 49 49 49 49 49 49 49
35 34 33 34 34 34 34 33 32 33 33 33 32 32 31 31 29 28 32 35 34 33 33 32 32 33 32 32 32 31 31 34 35 35 36 36 36 36 37 37 38 39 40 41 42 42 43 44 44 45 45 45 46 46 46 47 47 47 48 48 48 48 49 50 50 51 51 52 52 52 51 51 52 52 51 51 51 50 50 50 50 50 49 49 49 48
35 35 36 37 37 37 37 35 35 36 36 35 33 33 32 30 29 31 34 35 33 33 33 32 32 32 32 32 32 32 33 35 35 36 36 36 37 38 39 39 40 41 42 43 43 43 44 44 45 46 46 46 47 47 47 48 48 49 49 49 50 50 50 50 51 51 51 51 51 51 51 51 52 52 52 51 51 50 50 50 50 49 49 49 48 47
34 35 35 37 37 38 38 37 36 38 38 36 35 35 35 34 34 35 35 33 32 33 34 33 33 33 33 34 34 35 36 36 37 37 38 38 40 41 41 42 42 42 43 44 44 44 45 46 46 47 48 48 48 49 50 50 50 51 51 51 51 52 52 51 51 51 51 51 51 51 51 51 51 51 51 50 50 49 49 48 48 48 47 47 46 45
34 34 34 36 36 35 36 36 35 37 37 35 34 35 36 37 37 36 34 33 34 34 34 35 36 36 36 37 37 38 38 38 39 39 40 40 41 42 42 43 43 43 44 45 45 46 47 48 48 49 49 49 50 50 51 51 52 52 52 53 53 53 52 52 52 52 51 51 51 51 50 50 50 50 50 49 49 48 48 47 46 46 46 45 45 44
35 35 35 36 36 34 35 36 35 35 34 34 34 36 36 36 36 33 32 33 34 34 34 35 36 37 36 37 37 38 38 39 39 40 40 41 41 42 43 43 44 45 45 46 47 48 48 49 50 50 51 51 51 51 52 52 53 54 54 54 54 54 54 54 54 53 53 52 52 51 51 50 50 50 50 49 49 48 47 47 46 46 46 45 45 44
37 37 35 36 36 35 36 37 36 34 33 33 34 35 34 33 33 32 31 32 33 34 34 34 36 36 36 37 38 38 38 39 39 40 41 42 42 43 44 45 46 46 47 47 48 49 49 50 51 52 52 53 52 52 52 53 53 54 55 55 55 55 55 55 55 55 55 54 53 53 52 51 50 50 50 49 49 49 48 47 46 46 46 45 45 44
36 35 34 34 36 36 36 36 35 33 33 33 33 34 34 33 33 33 32 32 33 34 34 34 35 36 36 37 38 38 39 40 41 42 43 43 44 45 45 46 47 48 48 49 49 50 51 52 52 53 54 54 54 53 54 54 54 55 56 56 56 56 56 56 55 55 55 55 54 53 53 52 51 50 49 49 49 49 48 47 46 46 45 45 45 45
35 35 34 34 35 35 36 36 35 34 34 34 33 34 34 34 34 34 34 34 33 33 34 35 35 36 37 38 39 40 41 42 43 44 45 45 46 46 47 48 48 49 49 50 51 51 52 52 53 54 55 56 55 54 54 55 55 56 57 57 56 56 56 56 56 56 56 55 55 54 53 53 52 51 50 49 48 48 47 47 46 45 45 45 44 44
36 35 35 35 35 35 36 35 34 34 34 34 33 33 33 34 34 34 34 34 34 35 35 36 36 37 39 40 41 42 43 44 44 46 46 46 47 47 48 49 50 50 51 51 52 52 53 53 54 55 55 56 56 55 56 56 56 57 57 57 57 57 57 57 57 57 57 57 56 55 54 54 53 52 51 50 48 47 47 46 46 45 45 44 44 43
36 36 36 36 36 36 36 36 34 34 35 34 33 34 35 35 35 35 35 35 36 36 37 37 38 39 39 40 42 43 44 45 45 46 47 47 48 48 49 50 51 51 52 52 52 53 53 54 55 56 56 57 57 57 57 57 58 58 57 57 57 57 57 58 58 58 58 57 56 55 54 54 54 53 52 50 49 47 46 46 45 45 44 44 43 42
37 37 37 36 37 38 38 37 36 36 35 35 35 35 36 36 36 36 36 36 36 37 38 39 39 39 40 41 42 43 44 46 46 47 48 48 48 49 51 51 52 53 53 53 54 54 54 55 56 56 57 58 57 58 58 58 58 58 57 57 57 56 56 57 57 57 57 56 56 55 53 53 52 52 51 50 48 47 46 45 44 44 43 43 42 41
39 39 38 37 38 39 38 37 36 36 36 36 36 36 36 36 36 36 37 37 38 39 39 40 41 41 41 42 43 44 45 46 47 48 49 49 50 51 52 52 53 54 54 55 55 55 56 56 56 57 58 58 58 58 58 59 59 58 57 57 56 55 55 54 54 54 54 54 54 53 51 50 50 49 49 48 47 46 46 45 44 43 43 41 40 39
Wind_Direction
213 213 217 219 220 222 222 221 219 221 220 218 222 225 227 228 234 237 239 243 238 238 245 245 245 248 249 251 253 256 258 255 255 257 258 258 257 255 253 253 253 253 254 257 257 256 255 254 254 255 256 256 256 257 255 254 254 254 256 257 257 258 258 257 258 259 260 261 263 265 266 267 268 269 269 270 270 270 270 270 269 269 269 268 267 267
214 214 219 222 221 220 221 219 217 220 222 222 221 225 231 230 233 236 237 243 242 240 247 251 253 251 249 251 254 255 254 252 252 252 254 255 254 253 252 251 252 253 256 259 259 259 258 257 256 255 255 254 254 255 255 254 254 254 255 256 258 259 258 258 258 259 260 261 264 266 268 269 270 270 270 271 272 272 272 272 272 272 271 271 270 269
217 219 223 223 219 217 219 218 216 219 222 224 224 224 230 233 235 239 241 245 245 243 249 256 258 254 251 252 253 253 250 251 253 251 252 253 252 252 251 252 254 255 258 260 261 261 261 260 259 257 256 254 254 255 255 255 255 256 256 257 258 258 258 259 259 260 261 263 265 267 269 270 271 272 272 273 273 273 274 274 274 274 273 273 273 272
216 223 223 219 216 214 218 219 216 220 225 225 224 225 231 235 234 238 243 247 248 248 250 258 261 256 254 254 254 254 252 253 256 254 253 253 251 251 252 253 255 256 259 261 262 263 263 263 262 258 256 255 254 254 254 254 255 256 256 257 257 257 258 259 259 260 262 264 266 268 270 271 272 274 273 274 274 274 275 275 275 274 274 274 274 273
218 224 220 214 215 214 216 220 217 219 229 232 227 225 231 234 233 237 243 246 250 253 255 261 265 259 256 258 257 257 254 254 258 258 256 254 251 251 253 254 254 254 257 261 263 264 264 264 262 260 258 257 255 254 253 253 254 256 257 256 257 257 258 259 259 260 262 264 266 267 269 271 272 273 273 273 273 274 274 274 275 274 274 274 274 273
221 224 218 212 217 217 215 221 221 219 227 236 233 228 229 231 233 239 246 248 251 256 257 260 262 258 257 257 256 258 260 259 260 260 258 257 255 251 251 253 254 255 257 260 263 266 265 263 262 261 259 257 256 255 254 255 256 257 258 257 257 258 259 260 260 261 262 264 265 266 267 268 269 270 271 272 273 274 274 275 276 276 275 275 275 275
220 222 218 213 215 217 217 222 225 221 223 233 234 229 229 230 233 238 243 246 246 249 254 255 250 255 260 255 254 259 263 264 263 262 261 262 260 256 254 257 258 258 259 261 263 265 264 262 261 260 257 255 255 255 255 256 257 257 258 258 258 259 260 261 262 262 263 264 265 266 266 267 269 271 272 274 275 277 277 278 279 278 278 277 277 277
219 220 219 216 216 218 219 224 226 221 222 233 235 228 228 231 232 236 239 242 246 249 257 259 251 255 259 253 254 261 264 266 265 262 262 262 264 263 261 260 260 260 259 261 262 263 262 260 259 259 258 257 256 257 256 256 257 257 258 259 259 260 261 263 264 264 264 265 266 267 268 269 270 272 274 276 277 279 280 280 281 281 281 279 279 279
221 219 219 216 217 221 222 226 226 221 226 235 233 228 230 231 231 236 239 243 250 253 257 258 252 252 256 253 257 264 264 265 264 260 261 264 267 267 263 258 257 258 257 257 259 262 264 263 262 262 262 261 259 259 258 257 258 259 259 260 260 261 262 263 264 265 265 266 267 268 269 270 272 273 275 277 278 280 281 281 281 282 282 281 281 280
224 222 220 216 218 223 225 229 227 225 230 232 229 231 236 237 237 241 241 244 253 253 251 253 251 250 256 257 257 261 261 260 260 259 259 262 265 264 261 257 254 254 257 259 261 264 268 268 267 265 264 263 262 261 260 259 259 260 260 260 260 261 262 264 265 266 266 266 267 268 269 270 273 275 276 278 279 280 281 281 281 282 282 282 282 282
227 226 224 221 223 223 223 227 229 229 228 226 229 236 240 245 246 246 247 247 251 253 250 251 250 250 256 258 252 252 255 253 256 259 258 260 263 262 261 259 256 256 259 264 267 270 272 271 271 269 266 264 263 262 261 261 262 262 262 261 261 262 263 265 266 267 267 267 267 268 269 271 273 275 276 278 279 280 281 281 282 282 283 283 283 283
230 226 227 228 227 224 223 229 234 236 233 230 233 235 238 247 250 250 253 250 247 250 251 251 250 245 248 252 252 253 257 254 250 253 259 263 263 260 258 258 258 259 262 267 271 273 273 273 274 272 268 265 264 263 263 265 266 266 265 264 263 264 265 266 267 268 268 269 269 269 270 271 273 275 276 277 278 279 280 281 282 284 284 285 285 285
228 228 231 233 230 226 225 230 235 240 238 234 233 232 235 245 250 250 251 248 246 249 252 252 251 247 249 254 257 256 258 254 246 249 257 261 259 257 257 258 260 262 265 268 270 272 272 273 275 273 269 267 265 264 266 268 269 269 268 267 266 267 267 267 267 268 269 270 270 271 271 272 273 275 275 276 278 279 280 281 283 284 285 286 286 286
229 235 234 231 233 230 226 227 230 235 235 233 232 231 232 237 243 248 250 252 252 253 253 253 253 254 257 260 257 254 254 250 247 251 257 255 253 256 259 262 265 267 268 269 270 272 273 273 274 272 269 267 265 266 268 270 271 271 271 271 270 270 269 268 268 269 270 270 271 271 272 273 274 275 276 277 278 279 280 281 282 284 285 286 287 288
227 235 233 229 233 231 230 232 230 232 235 237 236 233 234 234 237 244 246 247 252 255 253 252 251 250 251 256 255 254 257 254 250 252 255 253 252 255 260 265 267 268 270 271 272 272 272 272 271 270 268 268 268 269 271 271 272 272 273 273 272 272 270 269 269 269 270 270 271 272 273 274 275 276 277 277 278 279 279 281 282 284 285 287 288 289
228 235 237 235 235 230 232 236 234 233 238 240 238 236 239 239 239 246 247 244 249 256 255 251 250 250 250 256 258 256 260 262 257 256 259 258 258 259 263 267 268 269 270 271 271 272 272 272 272 271 271 271 271 272 273 273 273 273 274 274 273 272 271 270 270 270 270 270 271 272 273 274 275 277 277 277 278 279 280 281 283 284 286 287 289 290
231 237 240 239 238 235 233 236 235 234 237 238 237 237 240 240 239 245 251 253 253 255 256 251 253 258 261 263 264 263 263 263 260 261 263 261 261 261 262 266 269 269 268 269 270 272 274 275 275 275 274 274 273 274 274 275 275 275 275 274 272 272 272 271 270 270 270 270 271 271 272 273 275 276 277 277 278 279 281 282 283 285 286 288 289 290
231 237 241 237 236 239 237 235 237 239 236 235 238 239 241 244 244 244 249 257 256 255 258 254 254 259 260 260 265 265 265 265 263 260 260 260 261 261 262 266 267 264 265 268 271 273 276 279 281 280 279 277 275 275 275 275 275 276 275 275 273 273 273 272 271 271 271 271 271 271 271 273 275 275 276 278 279 280 281 283 284 285 287 288 289 290
232 236 242 237 235 240 239 234 237 241 238 236 239 240 240 243 245 244 246 251 253 256 260 259 258 257 254 254 260 262 263 267 265 256 257 262 262 261 264 265 265 264 266 269 272 275 277 279 282 283 282 279 276 275 276 276 276 276 276 275 275 274 274 274 273 271 271 271 271 271 272 273 275 275 276 277 279 280 281 282 284 286 287 289 290 290
234 235 240 239 237 238 238 235 235 238 239 239 241 241 242 244 244 243 244 247 250 253 258 262 262 258 255 255 256 258 261 263 258 251 255 262 261 259 263 264 264 266 268 271 274 276 277 279 282 282 282 281 278 277 277 277 276 276 276 276 276 275 275 275 273 272 270 270 270 271 272 273 275 275 276 277 278 279 280 282 284 285 287 288 289 290
234 235 237 240 239 236 237 237 236 235 236 238 239 239 242 244 245 246 248 247 248 251 254 260 262 258 258 257 253 255 260 259 253 250 255 261 262 262 264 264 264 265 268 272 275 277 279 280 282 283 283 283 282 280 278 277 277 276 276 277 277 277 276 275 274 272 270 270 270 271 272 274 275 276 277 277 278 279 280 281 283 284 286 287 288 289
234 235 235 237 237 237 239 241 239 237 238 239 240 240 240 241 242 246 250 250 249 250 251 255 261 261 258 258 258 259 260 257 252 252 255 258 260 263 265 266 266 266 270 275 276 278 279 279 281 284 285 284 282 281 279 277 277 277 278 279 279 278 278 277 275 272 271 271 271 272 273 274 275 276 277 278 279 279 279 280 281 283 284 285 287 288
234 235 235 237 239 239 242 243 241 241 242 242 243 243 242 242 241 241 248 251 250 251 252 254 261 262 258 257 258 257 254 253 254 253 254 256 259 263 266 267 268 270 273 275 276 277 277 278 281 284 284 283 281 280 279 277 277 278 279 280 280 280 280 280 277 274 272 272 272 273 274 275 275 276 277 278 279 279 279 280 281 282 283 284 286 287
232 234 235 238 242 243 244 245 243 243 242 242 244 244 242 243 243 242 245 248 248 249 250 253 257 260 261 259 255 253 252 255 257 257 259 264 266 268 271 273 275 276 278 279 278 278 279 281 283 283 282 282 280 278 277 277 278 279 279 280 280 280 281 281 279 277 275 273 273 273 274 275 275 276 277 278 278 279 279 280 281 282 283 284 284 285
231 233 233 235 241 243 244 244 243 243 243 242 244 244 242 243 244 245 247 248 251 250 247 249 254 257 262 262 258 256 258 259 261 263 268 273 274 274 276 278 280 281 283 283 282 281 281 282 282 282 281 281 279 277 277 277 278 279 279 280 280 279 280 280 279 279 277 275 274 274 274 275 276 276 276 277 278 278 279 280 281 282 283 283 284 284
231 233 232 232 235 238 240 241 242 243 243 244 245 244 243 242 241 244 247 246 250 251 247 248 253 256 259 261 261 262 263 264 269 271 274 276 275 276 277 279 282 283 283 284 283 283 282 282 282 282 281 280 279 278 278 279 280 280 280 281 280 280 280 280 279 279 279 278 276 276 275 276 276 277 277 278 279 279 280 281 282 282 283 283 283 283
233 236 235 234 237 239 241 243 244 242 241 243 245 243 243 243 241 243 246 245 248 252 251 251 255 258 259 257 259 264 266 268 271 273 274 274 274 276 278 279 281 281 281 282 282 281 281 281 281 281 281 281 281 281 281 281 282 283 283 283 283 282 281 281 280 280 279 279 278 278 277 277 277 278 279 279 279 280 280 281 281 282 282 282 282 282
234 237 237 237 241 242 242 243 244 242 241 242 244 243 243 243 242 242 244 247 249 252 254 254 255 257 259 258 258 262 265 267 268 269 271 272 273 276 278 278 278 278 280 281 280 280 280 280 280 281 282 283 284 284 284 284 285 285 285 285 285 284 283 283 282 281 280 279 279 279 278 278 278 278 279 279 280 279 279 280 280 280 281 281 281 282
234 237 239 238 241 243 242 243 244 245 246 245 244 244 244 244 243 243 246 248 248 249 254 257 254 255 260 261 259 260 262 265 266 267 269 272 274 276 276 276 276 278 280 280 279 280 281 281 282 283 285 286 287 288 288 288 288 287 287 287 287 286 286 285 284 283 282 281 280 280 280 280 279 279 279 280 279 279 279 278 278 279 279 280 280 281
236 239 240 239 241 243 243 244 244 245 246 246 244 243 243 244 244 246 249 250 250 252 256 259 258 257 260 262 262 261 263 265 267 267 269 272 273 273 273 274 275 277 278 278 279 280 281 281 283 285 286 288 289 289 290 290 290 289 289 289 289 289 288 287 286 285 284 283 283 282 281 281 281 280 280 280 280 280 279 278 278 278 278 278 279 279
237 239 240 239 243 244 243 243 244 243 244 246 246 244 243 244 246 248 251 251 251 254 258 259 260 261 261 262 264 264 263 264 266 268 271 271 269 270 272 274 276 277 278 278 279 280 281 281 283 285 286 288 289 289 289 289 289 289 289 289 290 289 289 287 287 287 286 286 286 285 284 283 282 282 281 281 281 280 280 279 278 278 277 277 277 278
237 239 241 241 244 246 244 243 244 245 246 248 247 246 244 245 247 248 250 251 251 254 257 258 259 261 263 263 265 265 262 263 266 269 270 269 269 271 273 275 276 277 278 279 280 281 282 282 283 285 286 288 288 289 288 288 288 288 288 289 289 289 289 288 287 287 288 288 288 287 285 284 284 283 283 283 282 281 281 280 279 278 277 277 277 278
237 238 241 241 245 249 247 245 245 246 247 248 248 248 247 248 250 251 252 252 251 253 256 257 258 261 264 263 264 265 265 265 267 267 267 268 270 273 274 275 277 278 279 280 280 280 281 282 283 285 286 287 288 288 288 288 288 288 288 288 288 289 289 288 288 288 288 288 288 287 286 285 284 284 284 284 284 283 282 281 280 278 278 277 277 278
237 239 242 242 244 248 247 245 246 245 245 249 251 249 248 249 251 252 253 253 253 254 257 260 262 263 264 263 264 267 267 266 266 265 265 267 270 273 275 276 278 279 279 280 280 280 281 282 283 284 285 286 287 287 288 288 288 288 288 288 288 288 289 289 289 289 289 288 288 288 287 286 285 285 285 285 285 284 283 281 280 279 278 277 277 278
237 238 242 243 244 246 245 243 244 245 247 251 254 251 249 251 251 252 255 256 255 256 257 260 261 262 262 263 265 266 267 267 265 263 264 267 270 273 276 277 277 278 279 280 281 281 282 283 284 284 285 287 287 288 288 288 288 288 288 288 288 288 289 289 288 289 289 289 289 288 287 286 286 285 285 285 284 284 283 282 280 279 278 277 277 278
237 239 242 242 243 245 244 241 245 251 254 255 255 254 253 254 254 255 257 258 256 255 256 258 259 261 262 264 265 266 267 267 265 262 262 267 271 273 275 276 277 278 279 279 280 281 282 283 284 284 285 286 287 287 288 288 288 289 289 289 289 288 288 288 288 288 288 288 288 288 288 287 286 286 285 285 284 283 282 281 280 279 278 278 278 278
237 239 242 242 242 243 243 244 249 255 257 256 254 253 253 254 254 254 256 258 257 255 256 257 259 261 262 263 265 266 266 266 264 261 263 268 271 272 273 274 276 276 277 279 280 281 282 283 283 284 285 285 286 287 288 289 290 290 290 290 290 289 289 288 288 288 288 288 288 288 288 287 286 286 285 284 283 282 281 280 280 279 278 278 278 278
237 239 241 242 243 243 244 247 249 251 253 254 253 253 252 252 250 250 253 257 257 256 256 257 258 260 261 263 265 266 265 264 263 262 266 271 273 273 274 274 275 276 277 278 280 281 282 283 283 284 285 286 287 288 289 290 290 291 291 291 291 290 289 289 288 287 287 287 288 287 287 286 286 285 284 283 282 281 281 280 280 279 279 278 278 278
239 241 242 242 243 243 243 247 248 248 251 253 252 253 253 250 249 250 254 257 256 256 258 258 258 259 260 262 265 266 265 264 263 264 268 271 272 273 274 274 275 276 277 278 279 280 281 282 283 285 286 287 288 289 290 291 291 291 290 291 291 291 291 290 289 288 288 288 288 287 286 285 285 285 284 283 282 281 280 279 279 279 279 278 278 278
239 241 241 241 242 243 244 247 249 250 252 252 252 253 254 253 251 251 255 258 257 257 259 258 258 260 260 260 263 264 263 263 264 266 269 271 272 273 274 275 276 277 278 279 280 280 281 282 283 284 286 287 288 289 290 290 290 290 290 291 291 291 291 291 290 290 289 288 288 287 287 286 285 284 284 283 282 281 280 279 279 278 278 277 277 277
240 240 241 241 243 244 245 248 251 252 252 251 252 253 254 256 254 251 255 259 258 257 258 259 259 260 260 260 262 263 262 263 265 268 271 272 273 274 275 276 277 278 279 280 280 281 282 282 283 284 285 287 288 288 289 289 289 290 290 290 290 290 291 292 292 291 290 289 288 287 287 287 286 285 284 283 283 282 281 280 279 278 277 277 276 276
238 240 242 242 243 245 246 248 252 254 253 251 251 253 253 254 255 255 258 260 256 255 258 260 260 261 261 261 263 263 265 267 268 270 272 273 273 275 276 277 278 279 280 280 281 282 283 283 284 285 285 286 287 288 288 288 288 289 290 290 290 290 291 291 292 291 290 289 288 288 287 287 286 285 284 284 283 282 281 280 279 278 277 276 275 275
238 239 241 242 243 245 246 247 250 254 254 251 251 254 254 254 255 256 257 258 256 256 257 259 261 262 262 263 265 265 267 269 270 271 272 273 273 274 276 277 278 279 280 281 282 283 284 284 285 286 286 287 288 288 288 288 288 288 288 289 290 290 291 291 291 291 290 289 289 288 288 287 286 285 284 284 283 282 281 280 279 278 277 276 275 275
240 239 241 243 243 243 244 246 250 254 255 252 251 253 254 254 256 255 254 255 257 258 257 258 261 262 262 263 265 266 268 269 271 272 273 273 274 275 276 278 278 279 280 281 282 284 284 284 285 286 287 287 288 288 288 288 287 287 287 288 289 289 289 289 289 289 289 288 288 288 287 287 286 285 284 283 282 281 280 279 278 277 276 275 275 275
242 243 244 245 246 246 247 250 252 254 254 253 253 253 254 254 255 254 254 255 257 257 257 259 261 262 262 263 264 266 268 269 270 272 273 274 276 277 278 279 280 280 281 282 283 284 284 284 285 285 286 287 287 288 288 287 287 287 287 288 289 289 289 288 288 288 287 287 287 286 286 286 286 285 284 282 281 280 279 278 277 277 276 275 274 274
245 245 246 247 248 250 251 252 252 253 253 253 254 255 255 255 255 254 255 257 258 258 259 260 262 263 264 265 266 268 270 271 272 273 274 276 277 278 280 281 281 282 283 283 284 285 285 285 285 285 286 286 287 287 288 288 287 287 287 288 288 288 288 287 287 286 286 286 285 285 285 285 285 284 283 282 280 279 278 277 276 276 275 275 274 275
246 245 245 247 247 248 250 251 251 251 252 253 255 255 256 256 256 255 256 258 259 260 261 262 264 266 267 268 269 270 271 273 275 275 276 278 279 279 280 281 282 283 283 284 285 285 285 285 285 286 286 286 287 287 287 288 287 287 287 288 288 287 287 286 286 285 285 284 284 284 284 283 283 283 282 281 280 279 277 276 275 275 274 274 274 275
246 244 245 247 247 248 250 252 251 252 254 254 253 253 255 256 257 258 259 260 260 261 263 264 266 267 269 270 271 272 273 275 276 277 278 278 279 280 281 281 282 283 283 284 285 285 285 285 285 285 286 286 286 287 287 287 287 287 287 287 287 287 286 286 285 284 284 283 283 283 282 282 282 281 281 280 279 278 276 275 275 274 274 274 274 275
245 245 246 247 248 250 252 252 252 254 257 256 253 254 257 258 258 259 260 261 262 264 265 266 267 268 270 271 272 273 274 275 277 278 279 279 280 280 281 282 283 283 284 284 285 285 285 285 285 285 286 286 286 287 287 287 287 287 287 287 287 286 286 285 285 284 284 283 282 282 282 281 281 280 279 279 278 277 276 275 275 274 275 275 274 274
245 246 248 249 249 251 252 252 251 253 255 255 254 255 257 257 257 258 260 261 263 264 266 268 269 270 271 273 274 275 276 277 278 279 279 279 280 281 282 283 283 284 284 285 285 286 286 286 286 286 286 286 287 287 287 287 287 288 287 287 287 286 286 286 285 285 284 284 283 282 281 281 280 279 278 277 277 276 275 275 274 274 274 274 274 274
245 247 248 249 250 252 252 251 250 252 254 253 253 254 256 257 257 258 260 262 264 266 267 269 270 271 273 274 276 277 278 278 279 280 280 280 281 282 283 284 284 284 285 285 286 286 286 287 287 287 287 287 287 287 287 287 287 287 287 287 287 286 286 286 286 286 285 284 283 282 281 280 279 278 277 277 276 275 274 274 273 273 273 273 273 272